N2KC KSAN-KVNY

Flight info

Callsign N2KC
Flight time 0h 31m
Altitude 14000
Route CWARD2 LAX DCT CANOG DCT
Aircraft P180/L-SBDFGM3RWXY/LB1

Departure

Time 2026-05-05 20:29
Airport San Diego International Airport (KSAN)

Arrival

Time 2026-05-05 21:01
Airport Van Nuys Airport (KVNY)
Time Latitude Longitude Altitude Speed Heading
2026-05-05 20:19 32.73341 -117.17873 46 ft 0 kts 185°
2026-05-05 20:26 32.73327 -117.17888 18 ft 5 kts 238°
2026-05-05 20:26 32.73314 -117.17938 21 ft 8 kts 245°
2026-05-05 20:26 32.73254 -117.17981 16 ft 13 kts 172°
2026-05-05 20:26 32.73214 -117.17898 16 ft 15 kts 103°
2026-05-05 20:27 32.73184 -117.17769 17 ft 18 kts 107°
2026-05-05 20:27 32.73144 -117.17667 17 ft 8 kts 147°
2026-05-05 20:27 32.73129 -117.17663 17 ft 0 kts 185°
2026-05-05 20:28 32.73100 -117.17671 17 ft 9 kts 194°
2026-05-05 20:28 32.73050 -117.17706 16 ft 7 kts 274°
2026-05-05 20:29 32.73053 -117.17720 16 ft 0 kts 285°
2026-05-05 20:29 32.73146 -117.18105 15 ft 112 kts 287°
2026-05-05 20:29 32.73403 -117.19135 640 ft 130 kts 288°
2026-05-05 20:30 32.73673 -117.20132 937 ft 130 kts 287°
2026-05-05 20:30 32.73951 -117.21179 1421 ft 140 kts 287°
2026-05-05 20:30 32.74230 -117.22382 2025 ft 159 kts 284°
2026-05-05 20:30 32.74551 -117.23685 2816 ft 169 kts 286°
2026-05-05 20:31 32.74898 -117.25049 3540 ft 175 kts 285°
2026-05-05 20:31 32.75317 -117.26416 4243 ft 179 kts 302°
2026-05-05 20:31 32.76155 -117.27526 4958 ft 181 kts 309°
2026-05-05 20:31 32.76941 -117.28703 5676 ft 182 kts 304°
2026-05-05 20:32 32.77720 -117.29894 6393 ft 183 kts 307°
2026-05-05 20:32 32.78515 -117.31083 7065 ft 184 kts 306°
2026-05-05 20:32 32.79309 -117.32264 7748 ft 183 kts 307°
2026-05-05 20:32 32.80136 -117.33507 7992 ft 205 kts 306°
2026-05-05 20:33 32.81069 -117.34909 8002 ft 226 kts 306°
2026-05-05 20:33 32.82087 -117.36426 8001 ft 242 kts 306°
2026-05-05 20:33 32.83162 -117.38034 7998 ft 253 kts 307°
2026-05-05 20:33 32.84276 -117.39696 7997 ft 261 kts 307°
2026-05-05 20:34 32.85411 -117.41408 7994 ft 266 kts 307°
2026-05-05 20:34 32.86567 -117.43146 7991 ft 269 kts 307°
2026-05-05 20:34 32.87736 -117.44892 7986 ft 271 kts 307°
2026-05-05 20:34 32.88909 -117.46653 7985 ft 272 kts 306°
2026-05-05 20:35 32.90079 -117.48423 7983 ft 273 kts 307°
2026-05-05 20:35 32.91268 -117.50184 7981 ft 273 kts 307°
2026-05-05 20:35 32.92446 -117.51951 7979 ft 272 kts 306°
2026-05-05 20:35 32.93612 -117.53731 7977 ft 272 kts 306°
2026-05-05 20:36 32.94791 -117.55495 7976 ft 273 kts 307°
2026-05-05 20:36 32.95974 -117.57262 7975 ft 273 kts 307°
2026-05-05 20:36 32.97147 -117.59041 7975 ft 273 kts 307°
2026-05-05 20:36 32.98319 -117.60817 7970 ft 273 kts 307°
2026-05-05 20:37 32.99501 -117.62589 7970 ft 273 kts 307°
2026-05-05 20:37 33.00283 -117.63761 7973 ft 272 kts 307°
2026-05-05 20:37 33.01855 -117.66136 7966 ft 273 kts 307°
2026-05-05 20:37 33.03039 -117.67915 7966 ft 274 kts 307°
2026-05-05 20:38 33.04205 -117.69678 7966 ft 274 kts 307°
2026-05-05 20:38 33.05395 -117.71489 7963 ft 274 kts 306°
2026-05-05 20:38 33.06597 -117.73244 7961 ft 274 kts 312°
2026-05-05 20:38 33.08075 -117.74687 7957 ft 275 kts 321°
2026-05-05 20:39 33.09568 -117.76111 7956 ft 275 kts 316°
2026-05-05 20:39 33.10978 -117.77655 7957 ft 275 kts 315°
2026-05-05 20:39 33.12425 -117.79144 7956 ft 275 kts 319°
2026-05-05 20:39 33.13902 -117.80601 7957 ft 275 kts 318°
2026-05-05 20:40 33.15363 -117.82079 7955 ft 275 kts 318°
2026-05-05 20:40 33.16819 -117.83564 7955 ft 275 kts 317°
2026-05-05 20:40 33.18267 -117.85054 7956 ft 275 kts 317°
2026-05-05 20:40 33.19850 -117.86337 7943 ft 278 kts 336°
2026-05-05 20:41 33.21734 -117.86753 7943 ft 281 kts 351°
2026-05-05 20:41 33.23656 -117.87144 7948 ft 280 kts 345°
2026-05-05 20:41 33.25532 -117.87758 7954 ft 280 kts 342°
2026-05-05 20:41 33.27433 -117.88251 7981 ft 280 kts 348°
2026-05-05 20:42 33.29354 -117.88643 7986 ft 280 kts 347°
2026-05-05 20:42 33.31259 -117.89129 7987 ft 280 kts 345°
2026-05-05 20:42 33.33158 -117.89660 7985 ft 280 kts 346°
2026-05-05 20:42 33.35076 -117.90110 7985 ft 281 kts 347°
2026-05-05 20:43 33.36999 -117.90541 7985 ft 281 kts 346°
2026-05-05 20:43 33.38842 -117.91258 7976 ft 277 kts 328°
2026-05-05 20:43 33.40297 -117.92744 7980 ft 275 kts 315°
2026-05-05 20:43 33.41759 -117.94222 7979 ft 277 kts 322°
2026-05-05 20:44 33.42808 -117.95095 7977 ft 277 kts 324°
2026-05-05 20:44 33.44359 -117.96461 7977 ft 277 kts 320°
2026-05-05 20:44 33.45825 -117.97962 7978 ft 278 kts 319°
2026-05-05 20:44 33.47330 -117.99418 7977 ft 278 kts 321°
2026-05-05 20:45 33.50399 -118.02242 7980 ft 278 kts 320°
2026-05-05 20:45 33.51898 -118.03708 7980 ft 278 kts 320°
2026-05-05 20:45 33.53418 -118.05148 7981 ft 279 kts 321°
2026-05-05 20:46 33.54944 -118.06577 7987 ft 279 kts 321°
2026-05-05 20:46 33.56463 -118.08020 7983 ft 278 kts 321°
2026-05-05 20:46 33.57979 -118.09466 7984 ft 278 kts 321°
2026-05-05 20:46 33.59495 -118.10903 7984 ft 278 kts 321°
2026-05-05 20:47 33.61006 -118.12348 7979 ft 277 kts 322°
2026-05-05 20:47 33.62517 -118.13786 7978 ft 277 kts 323°
2026-05-05 20:47 33.64035 -118.15205 7968 ft 276 kts 322°
2026-05-05 20:47 33.65532 -118.16641 7969 ft 276 kts 322°
2026-05-05 20:48 33.67034 -118.18082 7970 ft 276 kts 322°
2026-05-05 20:48 33.68538 -118.19513 7972 ft 276 kts 322°
2026-05-05 20:48 33.70047 -118.20938 7970 ft 276 kts 322°
2026-05-05 20:48 33.71554 -118.22371 7967 ft 276 kts 322°
2026-05-05 20:49 33.73052 -118.23812 7966 ft 276 kts 322°
2026-05-05 20:49 33.74549 -118.25262 7967 ft 276 kts 322°
2026-05-05 20:49 33.76065 -118.26679 7988 ft 276 kts 323°
2026-05-05 20:49 33.77581 -118.28098 7987 ft 277 kts 322°
2026-05-05 20:50 33.79071 -118.29558 7986 ft 276 kts 321°
2026-05-05 20:50 33.80563 -118.31003 7987 ft 275 kts 323°
2026-05-05 20:50 33.82075 -118.32421 7988 ft 275 kts 323°
2026-05-05 20:50 33.83575 -118.33853 7987 ft 275 kts 322°
2026-05-05 20:51 33.85071 -118.35286 7991 ft 275 kts 323°
2026-05-05 20:51 33.86559 -118.36720 7999 ft 274 kts 322°
2026-05-05 20:51 33.88049 -118.38166 8000 ft 276 kts 323°
2026-05-05 20:51 33.89562 -118.39593 7995 ft 277 kts 324°
2026-05-05 20:52 33.91067 -118.41031 7997 ft 276 kts 322°
2026-05-05 20:52 33.92558 -118.42492 8009 ft 278 kts 322°
2026-05-05 20:52 33.94023 -118.44042 7998 ft 280 kts 323°
2026-05-05 20:52 33.95728 -118.45041 7992 ft 277 kts 346°
2026-05-05 20:53 33.97646 -118.45392 7995 ft 275 kts 351°
2026-05-05 20:53 33.99428 -118.46191 7995 ft 273 kts 333°
2026-05-05 20:53 34.01085 -118.47227 7998 ft 271 kts 335°
2026-05-05 20:53 34.02819 -118.48134 8002 ft 273 kts 337°
2026-05-05 20:54 34.04552 -118.49059 8006 ft 272 kts 335°
2026-05-05 20:54 34.06233 -118.50122 7999 ft 273 kts 331°
2026-05-05 20:54 34.07916 -118.51157 7996 ft 269 kts 337°
2026-05-05 20:54 34.09635 -118.51987 7997 ft 264 kts 337°
2026-05-05 20:55 34.11269 -118.52964 7961 ft 261 kts 333°
2026-05-05 20:55 34.12885 -118.53961 7852 ft 262 kts 334°
2026-05-05 20:55 34.14541 -118.54918 7581 ft 265 kts 335°
2026-05-05 20:55 34.16218 -118.55868 7307 ft 267 kts 335°
2026-05-05 20:56 34.17895 -118.56814 7035 ft 265 kts 335°
2026-05-05 20:56 34.19567 -118.57681 6755 ft 259 kts 343°
2026-05-05 20:56 34.21327 -118.57862 6455 ft 252 kts 357°
2026-05-05 20:56 34.23058 -118.57875 5973 ft 244 kts 356°
2026-05-05 20:57 34.24725 -118.57936 5428 ft 237 kts 356°
2026-05-05 20:57 34.26355 -118.57890 4965 ft 231 kts 11°
2026-05-05 20:57 34.27688 -118.56948 4551 ft 208 kts 41°
2026-05-05 20:57 34.28526 -118.55723 4021 ft 173 kts 62°
2026-05-05 20:58 34.28873 -118.54377 3741 ft 165 kts 82°
2026-05-05 20:58 34.28968 -118.52996 3588 ft 165 kts 92°
2026-05-05 20:58 34.28913 -118.51593 3427 ft 169 kts 101°
2026-05-05 20:58 34.28492 -118.50297 3113 ft 165 kts 128°
2026-05-05 20:59 34.27613 -118.49512 2884 ft 154 kts 173°
2026-05-05 20:59 34.26587 -118.49551 2498 ft 138 kts 187°
2026-05-05 20:59 34.25696 -118.49527 2021 ft 123 kts 177°
2026-05-05 20:59 34.24882 -118.49416 1694 ft 114 kts 173°
2026-05-05 21:00 34.24122 -118.49314 1454 ft 105 kts 180°
2026-05-05 21:00 34.23409 -118.49270 1231 ft 104 kts 177°
2026-05-05 21:00 34.22688 -118.49195 1094 ft 102 kts 175°
2026-05-05 21:00 34.21986 -118.49134 885 ft 100 kts 175°
2026-05-05 21:01 34.21323 -118.49074 797 ft 88 kts 175°
2026-05-05 21:01 34.20810 -118.49028 785 ft 63 kts 179°
2026-05-05 21:01 34.20542 -118.49007 773 ft 24 kts 191°
2026-05-05 21:01 34.20393 -118.49063 766 ft 17 kts 205°
2026-05-05 21:02 34.20356 -118.49079 764 ft 0 kts 192°
2026-05-05 21:02 34.20334 -118.49083 763 ft 7 kts 186°
2026-05-05 21:02 34.20261 -118.49078 760 ft 14 kts 164°
2026-05-05 21:03 34.20149 -118.49056 757 ft 18 kts 188°